Regional Weather Roundup
Issued by NWS

Home | Current Version | Previous Version | Text Only | Print | Product List | Glossary Off
Versions: 1 2 3 4 5 6 7 8 9 10 11 12 13 14 15 16 17 18 19 20 21 22 23 24 25 26 27 28 29 30 31 32 33 34 35 36 37 38 39 40 41 42 43 44 45 46 47 48 49 50

000
ASUS45 KPSR 031200
RWRAZ

PRELIMINARY ARIZONA REGIONAL HOURLY WEATHER ROUNDUP
NATIONAL WEATHER SERVICE PHOENIX AZ
500 AM MST TUE MAR 03 2015

NOTE: FAIR INDICATES FEW OR NO CLOUDS BELOW 12,000 FEET WITH NO
SIGNIFICANT WEATHER AND/OR OBSTRUCTIONS TO VISIBILITY.

AZZ001>003-036-031300-
NORTHWEST ARIZONA

CITY           SKY/WX    TMP DP  RH WIND       PRES   REMARKS
KINGMAN        CLEAR     31  28  89 CALM      29.92S
6HR MIN TEMP:  31; 6HR MAX TEMP:  40;

$$

AZZ004>008-015-016-018-031300-
NORTH CENTRAL ARIZONA

CITY           SKY/WX    TMP DP  RH WIND       PRES   REMARKS
GRAND CANYON   FOG       25  24  96 CALM      29.90F VSB 1/2
6HR MIN TEMP:  25; 6HR MAX TEMP:  29; 6HR PCP: TRACE;

PRESCOTT       CLOUDY    35  32  88 SE3       29.91F
6HR MIN TEMP:  35; 6HR MAX TEMP:  37;

FLAGSTAFF      NOT AVBL
PAYSON         CLOUDY    34  34 100 CALM      29.93F
$$

AZZ009>014-017-031300-
NORTHEAST ARIZONA

CITY           SKY/WX    TMP DP  RH WIND       PRES   REMARKS
WINSLOW        NOT AVBL
SAINT JOHNS    MOCLDY   N/A N/A N/A SE3       29.92F
WINDOW ROCK    CLOUDY    32  27  81 SW3       29.92F
6HR MIN TEMP:  31; 6HR MAX TEMP:  33; 6HR PCP: TRACE;

SHOW LOW       CLOUDY    28  27  93 CALM      29.95R
$$

AZZ023-031300-
GREATER PHOENIX AREA

CITY           SKY/WX    TMP DP  RH WIND       PRES   REMARKS
PHOENIX        MOCLDY    51  47  86 CALM      29.90F
6HR MIN TEMP:  50; 6HR MAX TEMP:  53; 6HR PCP: TRACE;

BUCKEYE        MOCLDY    46  46 100 N7        29.92F
LUKE AFB       CLEAR     45  44  97 N3        29.91F
6HR MIN TEMP:  45; 6HR MAX TEMP:  52; 6HR PCP:  0.05;

DEER VALLEY    PTCLDY    48  45  89 N5        29.91F
6HR MIN TEMP:  48; 6HR MAX TEMP:  50; 6HR PCP:  0.06;

SCOTTSDALE     MOCLDY    50  45  83 N3        29.92F
6HR MIN TEMP:  49; 6HR MAX TEMP:  51; 6HR PCP:  0.08;

MESA-GATEWAY   MOCLDY    45  45 100 E3        29.93F
$$

AZZ027-028-031300-
SOUTHWEST MARICOPA COUNTY AND PINAL COUNTY

CITY           SKY/WX    TMP DP  RH WIND       PRES   REMARKS
CASA GRANDE    CLEAR     45  41  87 N6        29.91F
6HR MIN TEMP:  45; 6HR MAX TEMP:  48;

GILA BEND      FAIR      47  48 100 NE3       29.91S
6HR MIN TEMP:  47; 6HR MAX TEMP:  53;

$$

AZZ503-504-507>509-031300-
SOUTHEAST ARIZONA

CITY           SKY/WX    TMP DP  RH WIND       PRES   REMARKS
TUCSON         MOCLDY    48  46  93 W3        29.92F
6HR MIN TEMP:  48; 6HR MAX TEMP:  52;

DAVIS-MONTHAN  PTCLDY    46  43  87 W2        29.90F
6HR MIN TEMP:  46; 6HR MAX TEMP:  51;

NOGALES        CLOUDY    47  43  86 W5        29.90F
6HR MIN TEMP:  47; 6HR MAX TEMP:  50; 6HR PCP:  0.01;

DOUGLAS        CLOUDY    45  43  93 N12       29.91S
6HR MIN TEMP:  45; 6HR MAX TEMP:  56; 6HR PCP:  0.30;

SAFFORD        MOCLDY    45  41  86 N3        29.90F
6HR MIN TEMP:  45; 6HR MAX TEMP:  47; 6HR PCP: TRACE;

$$

AZZ020-021-025-026-031-031300-
SOUTHWEST ARIZONA

CITY           SKY/WX    TMP DP  RH WIND       PRES   REMARKS
YUMA           PTCLDY    52  46  80 N3        29.92S
6HR MIN TEMP:  52; 6HR MAX TEMP:  56;

$$

CAZ031-033-041-043-047-048-061-031300-
SOUTHERN CALIFORNIA

CITY           SKY/WX    TMP DP  RH WIND       PRES   REMARKS
DOWNTOWN L.A.  CLEAR     51  42  71 CALM      29.92F
6HR MIN TEMP:  51; 6HR MAX TEMP:  55; 6HR PCP:  0.02;

L.A. AIRPORT   PTCLDY    48  43  82 NE5       29.93F
6HR MIN TEMP:  48; 6HR MAX TEMP:  53; 6HR PCP:  0.23;

SAN DIEGO      MOCLDY    52  42  69 NE7       29.93F
6HR MIN TEMP:  52; 6HR MAX TEMP:  56; 6HR PCP:  0.01;

BURBANK        CLEAR     45  39  79 CALM      29.92F
6HR MIN TEMP:  45; 6HR MAX TEMP:  53; 6HR PCP: TRACE;

ONTARIO        PTCLDY    44  38  79 E3        29.93S
6HR MIN TEMP:  44; 6HR MAX TEMP:  51;

RIVERSIDE      CLEAR     42  38  85 NE3       29.93F
6HR MIN TEMP:  41; 6HR MAX TEMP:  49;

PALM SPRINGS   CLEAR     47  39  74 N8        29.93S
6HR MIN TEMP:  45; 6HR MAX TEMP:  52;

EL CENTRO NAS  CLEAR     44  39  82 CALM      29.92S
6HR MIN TEMP:  44; 6HR MAX TEMP:  53;

IMPERIAL       CLEAR     46  41  82 S3        29.91F
6HR MIN TEMP:  45; 6HR MAX TEMP:  54;

BLYTHE         CLEAR     45  44  97 N7        29.92S
6HR MIN TEMP:  45; 6HR MAX TEMP:  53;

NEEDLES        CLEAR     47  42  83 W3        29.93S
6HR MIN TEMP:  47; 6HR MAX TEMP:  53;

$$

NVZ020-UTZ003-031300-
SOUTHERN NEVADA-UTAH

CITY           SKY/WX    TMP DP  RH WIND       PRES   REMARKS
LAS VEGAS      NOT AVBL
SALT LAKE CITY LGT RAIN  35  32  88 N3        29.79S
6HR MIN TEMP:  33; 6HR MAX TEMP:  36; 6HR PCP: TRACE;

$$

NMZ009-TXZ055-031300-
NEW MEXICO-WEST TEXAS

CITY           SKY/WX    TMP DP  RH WIND       PRES   REMARKS
ALBUQUERQUE    CLOUDY    42  29  59 SW6       29.94R
6HR MIN TEMP:  41; 6HR MAX TEMP:  44; 6HR PCP: TRACE;

EL PASO        CLOUDY    56  46  69 W7        29.88S
6HR MIN TEMP:  53; 6HR MAX TEMP:  60;

$$


........................KEY........................
SKY/WX - SKY CONDITION/WEATHER
TMP    - TEMPERATURE IN FAHRENHEIT
DP     - DEW POINT IN FAHRENHEIT
RH     - RELATIVE HUMIDITY IN PERCENT
WIND   - DIRECTION AND SPEED IN MILES PER HOUR (MPH)
VRB    - VARIABLE WIND DIRECTION
PRES   - MEAN SEA LEVEL PRESSURE IN INCHES OF MERCURY
         F - FALLING PRESSURE   R - RISING PRESSURE
         S - STEADY PRESSURE
VSB    - VISIBILITY IN MILES
HX     - HEAT INDEX IN FAHRENHEIT
WCI    - WIND CHILL INDEX IN FAHRENHEIT
TC     - TEMPERATURE IN CELSIUS WHICH IS ALSO KNOWN AS
         TEMPERATURE IN CENTIGRADE
AFB    - AIR FORCE BASE
         LUKE AFB IS LUKE AIR FORCE BASE
         DAVIS-MONTHAN IS DAVIS-MONTHAN AIR FORCE BASE
NAS    - NAVAL AIR STATION
         EL CENTRO NAS IS EL CENTRO NAVAL AIR STATION
N/A    - NOT AVAILABLE


USA.gov is the U.S. government's official web portal to all federal, state and local government web resources and services.